Date,TemperatureHighF,TemperatureAvgF,TemperatureLowF,DewpointHighF,DewpointAvgF,DewpointLowF,HumidityHigh,HumidityAvg,HumidityLow,PressureMaxIn,PressureMinIn,WindSpeedMaxMPH,WindSpeedAvgMPH,GustSpeedMaxMPH,PrecipitationSumIn
2013-1-1,37.6,34.1,26.1,30.7,26.3,17.0,79,73,63,29.97,29.83,13,3,13,0.17
2013-1-2,30.2,25.9,23.0,18.5,16.3,14.9,73,67,60,30.17,29.96,13,3,13,0.00
2013-1-3,33.9,25.9,13.5,23.4,16.8,9.8,87,69,56,30.17,30.03,17,3,17,0.01
2013-1-4,35.3,32.9,31.3,23.9,22.5,20.4,73,65,61,30.07,29.95,23,9,23,0.00
2013-1-5,36.6,31.2,24.8,25.3,22.9,20.5,87,72,61,30.32,30.04,16,4,16,0.03
2013-1-6,41.6,34.9,28.4,31.4,27.8,24.3,87,76,59,30.13,29.92,8,1,8,0.17
2013-1-7,40.2,35.9,24.7,31.8,28.9,22.4,92,76,62,30.33,30.05,12,2,12,0.07
2013-1-8,42.9,30.4,20.9,30.7,25.5,19.2,96,83,60,30.33,30.28,6,0,6,0.00
2013-1-9,45.1,31.3,21.3,35.0,27.4,19.8,96,86,57,30.32,30.11,24,2,24,0.00
2013-1-10,44.8,37.3,29.0,30.4,28.4,24.8,89,71,54,30.52,30.26,12,1,12,0.00
2013-1-11,42.9,36.6,31.9,37.3,33.1,29.0,97,88,66,30.44,30.04,7,0,7,0.35
2013-1-12,44.9,39.1,35.9,42.8,38.1,35.1,98,96,90,30.11,30.04,3,0,3,0.01
2013-1-13,48.6,43.0,37.2,48.3,42.6,36.7,100,98,97,30.05,29.88,7,0,7,0.01
2013-1-14,50.1,45.5,38.2,47.2,38.6,27.8,99,78,58,30.25,29.83,13,2,13,0.15
2013-1-15,38.1,34.2,29.5,29.7,26.4,24.1,91,73,65,30.32,30.13,8,1,8,0.00
2013-1-16,34.0,32.0,30.2,32.5,30.7,28.8,96,95,91,30.13,29.82,8,0,8,0.07
2013-1-17,39.3,34.8,31.0,32.0,30.2,28.3,97,83,69,30.07,29.90,13,2,13,0.27
2013-1-18,35.1,28.0,23.5,28.8,15.6,10.0,84,60,44,30.41,29.97,17,5,17,0.00
2013-1-19,48.9,38.7,25.9,31.0,24.9,14.9,74,58,44,30.27,29.76,20,4,20,0.03
2013-1-20,49.7,38.2,23.1,32.4,22.3,12.7,66,53,36,30.03,29.64,28,8,28,0.00
2013-1-21,28.3,24.2,19.4,23.7,15.8,6.2,91,70,55,30.04,29.82,16,2,16,0.00
2013-1-22,19.3,14.1,8.9,6.7,2.0,-1.9,71,58,46,30.21,29.88,21,9,21,0.00
2013-1-23,19.3,12.2,8.0,6.3,2.8,-0.9,80,66,52,30.24,30.10,14,4,14,0.00
2013-1-24,25.7,17.0,11.3,11.0,6.3,1.8,92,64,39,30.45,30.07,15,3,15,0.00
2013-1-25,19.1,14.3,9.9,15.3,7.8,2.8,95,76,57,30.45,30.01,5,0,5,0.00
2013-1-26,26.1,23.9,15.5,15.2,14.0,12.2,89,66,61,30.22,30.04,8,1,8,0.02
2013-1-27,25.6,25.6,25.6,14.4,14.4,14.4,62,62,62,30.20,30.20,0,0,0,0.00
2013-2-17,19.9,19.7,19.4,10.3,7.9,5.8,66,60,55,30.10,30.07,14,9,15,0.00
2013-2-18,37.1,27.1,15.5,15.9,12.0,7.6,76,54,36,30.28,30.04,16,3,16,0.00
2013-2-19,35.8,33.5,30.4,33.0,26.5,15.2,95,76,49,30.04,29.70,20,7,20,0.00
2013-2-20,30.4,25.4,22.0,22.4,14.6,11.3,74,63,55,30.04,29.77,32,10,32,0.00
2013-2-21,36.5,27.6,23.0,20.2,16.6,13.1,74,63,48,30.30,30.02,21,7,21,0.01
2013-2-22,34.0,28.0,20.7,27.5,21.3,16.0,86,76,64,30.34,30.14,8,1,8,0.00
2013-2-23,37.3,34.9,33.2,36.0,32.9,27.5,97,93,79,30.15,29.78,6,0,6,0.03
2013-2-24,38.2,34.2,29.3,36.1,27.8,20.8,98,79,54,30.01,29.76,16,4,16,0.00
2013-2-25,46.2,34.8,25.6,29.0,24.5,20.9,84,67,43,30.15,30.02,9,2,9,0.00
2013-2-26,43.1,33.5,23.4,34.2,28.4,21.5,95,83,58,30.18,29.70,15,3,15,0.41
2013-2-27,43.2,39.1,35.5,39.2,36.7,33.8,96,91,80,29.71,29.50,8,2,8,0.57
2013-2-28,43.6,38.4,31.5,37.5,33.1,30.2,97,82,64,29.62,29.52,14,3,14,0.03
2013-3-1,40.9,37.5,32.9,32.1,28.6,23.0,83,70,58,29.81,29.61,16,4,16,0.00
2013-3-2,37.1,32.7,29.3,25.5,22.6,20.1,76,66,56,29.81,29.73,13,4,13,0.00
2013-3-3,35.2,30.7,26.7,22.6,20.3,17.8,76,65,55,29.82,29.72,17,6,17,0.00
2013-3-4,36.7,30.9,26.3,23.8,20.3,16.0,70,65,57,29.98,29.82,20,8,20,0.00
2013-3-5,41.9,33.4,29.3,28.0,24.4,21.6,83,70,55,30.02,29.83,10,3,10,0.00
2013-3-6,44.7,39.1,32.1,32.0,29.5,25.7,77,68,58,29.98,29.76,20,5,20,0.00
2013-3-7,44.2,39.1,34.0,28.5,26.0,22.8,68,59,47,30.11,29.98,16,4,16,0.00
2013-3-8,45.1,37.5,32.3,27.9,24.5,22.0,69,60,48,30.28,30.09,23,7,23,0.00
2013-3-9,59.0,40.1,26.4,30.8,25.2,21.5,85,59,27,30.32,30.19,10,1,10,0.00
2013-3-10,62.5,44.5,27.1,33.5,26.7,19.8,90,56,26,30.25,30.10,12,2,12,0.00
2013-3-11,57.0,49.5,42.0,48.9,38.7,29.8,82,67,46,30.14,29.80,12,2,12,0.00
2013-3-12,56.2,49.5,40.6,52.0,43.4,30.5,95,80,66,29.87,29.67,18,6,18,0.61
2013-3-13,45.9,37.4,29.2,33.9,27.2,18.3,87,67,41,29.92,29.78,27,5,27,0.00
2013-3-14,41.0,33.5,28.8,23.1,16.9,12.9,79,51,34,30.00,29.90,26,11,26,0.00
2013-3-15,48.7,37.0,22.2,32.6,25.0,15.2,85,62,50,30.00,29.68,20,5,20,0.00
2013-3-16,41.2,39.0,38.9,31.3,28.3,28.1,68,65,65,29.76,29.75,9,5,9,0.00
2013-3-17,38.9,38.9,38.9,28.1,28.1,28.1,65,65,65,29.76,29.76,5,5,5,0.00
2013-3-19,49.1,39.0,31.9,36.9,29.1,18.2,97,70,31,29.84,29.63,29,5,29,0.51
2013-3-20,43.2,35.3,30.4,23.4,20.6,17.1,68,56,37,29.85,29.73,20,6,20,0.00
2013-3-21,35.9,29.3,20.7,21.5,16.6,10.7,81,60,41,29.79,29.67,18,5,18,0.00
2013-3-22,40.6,32.1,25.9,25.7,22.0,18.3,86,67,53,29.91,29.74,20,7,20,0.00
2013-3-23,46.5,36.3,26.7,26.2,22.3,19.4,79,57,42,29.95,29.85,16,5,16,0.00
2013-3-24,46.0,37.3,26.5,25.5,22.6,19.1,82,57,37,29.93,29.60,10,2,10,0.00
2013-3-25,39.1,35.6,32.7,35.5,30.8,24.2,100,84,55,29.61,29.48,9,2,9,0.24
2013-3-26,51.0,40.0,31.7,36.8,32.1,27.9,96,75,46,29.88,29.61,14,2,14,0.02
2013-3-27,49.4,40.9,34.3,31.3,29.1,26.3,82,64,43,30.00,29.87,18,5,18,0.00
2013-3-28,47.8,41.2,34.2,33.4,29.5,26.3,88,65,43,30.13,29.97,12,3,12,0.01
2013-3-29,52.5,43.5,34.5,36.4,31.2,25.5,79,63,39,30.15,30.05,16,3,16,0.00
2013-3-30,59.0,42.2,26.6,34.0,26.3,20.1,95,60,24,30.16,30.01,14,1,14,0.00
2013-3-31,47.9,39.9,29.6,45.8,35.6,23.4,96,85,65,30.04,29.66,9,0,9,0.31
2013-4-1,50.6,43.3,31.5,45.9,31.7,13.7,97,68,28,29.91,29.63,26,6,26,0.04
2013-4-2,42.6,34.2,25.5,20.1,16.6,12.9,71,49,33,30.09,29.90,21,6,21,0.00
2013-4-3,44.9,34.4,24.0,22.0,16.0,11.0,76,49,29,30.33,30.08,21,6,21,0.00
2013-4-4,51.7,38.3,21.9,25.9,18.8,14.4,80,48,25,30.35,29.98,14,2,14,0.00
2013-4-5,61.2,46.2,30.0,31.8,22.9,15.7,76,43,21,30.02,29.75,18,4,18,0.00
2013-4-6,53.5,41.8,29.2,23.4,19.4,14.0,61,42,23,30.28,30.02,10,2,10,0.00
2013-4-7,65.6,54.5,43.4,45.2,32.9,19.3,63,44,33,30.15,29.83,21,5,21,0.00
2013-4-8,75.8,60.8,40.1,50.6,44.7,37.7,94,59,35,30.02,29.83,10,1,10,0.00
2013-4-9,82.0,70.6,54.9,54.3,50.0,45.0,80,50,29,29.96,29.76,18,4,18,0.00
2013-4-10,84.7,71.6,60.3,63.4,58.0,52.6,96,64,45,29.84,29.66,21,3,21,0.30
2013-4-11,60.5,54.5,50.3,59.3,50.5,46.7,97,86,78,29.87,29.70,13,3,13,0.07
2013-4-12,51.4,48.0,44.6,47.9,45.6,42.9,99,91,83,29.81,29.59,12,3,12,0.70
2013-4-13,56.3,47.9,40.1,46.0,36.9,34.3,94,67,47,29.89,29.73,16,4,16,0.00
2013-4-14,61.4,50.4,38.2,40.6,34.3,26.5,74,55,37,30.08,29.89,15,4,15,0.00
2013-4-15,66.6,55.1,46.2,50.5,41.8,33.9,72,61,51,30.19,30.07,16,2,16,0.00
2013-4-16,69.9,60.4,53.9,59.6,52.9,44.4,90,77,66,30.19,29.99,18,3,18,0.18
2013-4-17,68.8,58.8,48.5,60.2,44.0,35.1,96,62,30,30.21,30.04,13,2,13,0.16
2013-4-18,63.6,56.8,47.4,58.0,48.7,38.5,88,75,47,30.16,29.89,12,1,12,0.00
2013-4-19,73.4,63.6,49.5,64.7,57.1,41.8,91,80,69,29.90,29.43,31,6,31,1.13
2013-4-20,53.1,46.7,38.3,42.7,31.3,22.1,78,56,41,30.32,29.69,22,8,22,0.09
2013-4-21,54.4,41.8,28.4,31.5,25.7,20.9,81,55,32,30.55,30.32,12,2,12,0.00
2013-4-22,59.9,47.2,34.1,35.3,31.3,27.3,89,57,32,30.53,30.34,12,2,12,0.00
2013-4-23,62.3,50.1,39.6,43.1,38.0,30.4,82,64,43,30.38,30.02,7,2,7,0.00
2013-4-24,72.9,54.0,38.7,59.1,47.3,37.1,96,80,52,30.02,29.64,24,4,24,0.23
2013-4-25,61.4,50.4,41.4,38.7,33.8,26.6,76,55,28,30.21,29.99,17,4,17,0.00
2013-4-26,64.1,51.0,38.3,39.7,33.1,25.1,86,54,24,30.40,30.21,12,2,12,0.00
2013-4-27,70.8,52.9,33.4,40.6,35.7,30.1,94,57,25,30.38,30.18,7,1,7,0.00
2013-4-28,68.2,55.2,40.0,47.5,42.0,36.6,91,64,36,30.19,30.06,14,2,14,0.01
2013-4-29,57.7,55.2,51.9,55.7,50.0,39.6,96,84,57,30.07,29.99,10,1,10,0.17
2013-4-30,66.9,58.9,53.9,56.0,52.5,41.3,94,80,62,30.23,30.06,7,1,7,0.00
2013-5-1,74.4,62.3,39.0,42.0,37.4,28.6,91,44,22,30.35,30.23,8,1,8,0.00
2013-5-2,77.2,59.3,40.2,48.4,43.3,38.1,96,60,28,30.38,30.23,12,1,12,0.00
2013-5-3,72.6,59.0,44.3,48.6,42.8,36.6,95,59,33,30.33,30.19,7,1,7,0.00
2013-5-4,74.9,58.0,38.5,51.3,42.3,36.1,94,60,30,30.27,30.08,8,1,8,0.00
2013-5-5,74.7,58.7,42.0,46.8,40.4,24.6,94,57,16,30.17,30.04,8,1,8,0.00
2013-5-6,73.9,58.0,39.5,55.7,47.2,37.4,96,69,49,30.15,30.01,8,1,8,0.00
2013-5-7,77.3,64.1,49.6,58.4,53.3,48.1,97,71,42,30.04,29.92,13,2,13,0.00
2013-5-8,63.8,59.1,51.3,60.4,57.3,50.1,98,94,80,29.96,29.84,12,1,12,2.40
2013-5-9,68.1,57.4,49.3,60.7,54.9,48.5,99,92,73,29.91,29.84,12,0,12,0.08
2013-5-10,73.6,62.9,54.0,64.8,58.9,53.4,99,88,62,29.94,29.77,17,1,17,0.14
2013-5-11,70.2,63.6,59.3,65.5,59.5,51.0,97,87,62,29.78,29.63,16,3,16,0.32
2013-5-12,59.6,53.0,40.7,51.3,39.2,29.4,94,62,34,29.92,29.66,21,5,21,0.00
2013-5-13,55.8,45.6,37.6,34.8,30.4,25.3,85,58,34,30.10,29.92,16,3,16,0.00
2013-5-14,63.9,48.1,29.9,42.8,32.6,24.1,96,60,25,30.14,29.95,13,2,13,0.00
2013-5-15,72.7,60.0,48.2,59.7,51.5,42.7,90,74,61,29.98,29.58,14,2,14,0.00
2013-5-16,59.4,59.2,59.2,56.8,56.6,56.5,91,91,91,29.66,29.66,0,0,0,0.00
2013-5-17,59.2,59.2,59.2,56.6,56.6,56.6,91,91,91,29.66,29.66,0,0,0,0.00
2013-5-18,59.2,59.2,59.2,56.6,56.6,56.6,91,91,91,29.66,29.66,0,0,0,0.00
2013-5-19,59.2,59.2,59.2,56.6,56.6,56.6,91,91,91,29.66,29.66,0,0,0,0.00
2013-5-20,59.2,59.2,59.2,56.6,56.6,56.6,91,91,91,29.66,29.66,0,0,0,0.00
2013-5-21,87.6,80.1,59.2,70.5,68.4,56.6,91,68,54,29.75,29.66,12,2,12,0.00
2013-5-22,89.7,77.5,66.5,71.7,67.4,63.1,97,74,45,29.79,29.67,18,2,18,0.17
2013-5-23,76.6,68.5,62.1,69.4,64.9,60.6,97,89,68,29.78,29.64,12,2,12,0.53
2013-5-24,62.2,52.1,46.4,61.3,46.5,38.1,97,82,64,30.05,29.63,15,4,15,0.10
2013-5-25,63.6,53.1,43.1,41.3,37.2,33.4,78,57,35,30.07,29.98,20,5,20,0.00
2013-5-26,71.5,57.1,42.7,44.2,38.0,32.8,79,52,26,30.15,30.01,15,3,15,0.00
2013-5-27,73.5,58.0,38.2,48.8,43.0,36.6,97,62,33,30.22,30.07,13,1,13,0.00
2013-5-28,62.3,57.4,52.9,60.6,54.8,48.0,97,91,71,30.11,29.99,7,0,7,0.35
2013-5-29,87.9,72.3,60.1,70.8,63.8,59.2,99,78,47,30.01,29.92,17,2,17,0.02
2013-5-30,89.9,75.6,60.0,76.0,65.5,58.8,98,74,44,30.08,29.99,7,0,7,0.01
2013-5-31,91.3,77.7,62.9,73.2,66.3,61.7,98,71,44,30.05,29.89,12,1,12,0.00
2013-6-1,90.7,78.6,63.9,72.9,66.9,61.6,95,69,46,29.92,29.77,12,1,12,0.00
2013-6-2,86.0,78.3,73.5,71.1,67.1,62.9,82,69,48,29.77,29.67,14,3,14,0.00
2013-6-3,79.5,71.8,56.5,67.7,60.3,48.3,92,69,48,29.89,29.73,9,1,9,0.00
2013-6-4,76.7,62.4,46.0,51.6,45.9,40.3,89,58,30,30.06,29.89,9,2,9,0.02
2013-6-5,79.4,64.2,46.1,54.0,48.6,41.3,93,61,36,30.15,29.96,8,1,8,0.00
2013-6-6,67.7,64.1,60.5,61.0,56.1,51.3,94,76,56,29.99,29.81,8,1,8,0.26
2013-6-7,66.1,64.4,62.7,64.1,62.1,60.3,95,92,88,29.80,29.62,8,1,8,0.08
2013-6-8,75.8,66.7,56.9,63.7,60.4,54.6,95,81,57,30.02,29.64,9,1,9,0.00
2013-6-9,81.8,67.8,52.8,63.9,58.3,51.6,98,75,46,30.13,30.02,8,0,8,0.00
2013-6-10,70.4,67.1,63.4,69.1,65.0,61.5,98,93,81,30.04,29.67,12,1,12,1.79
2013-6-11,77.3,69.7,63.1,70.2,64.5,59.3,99,84,66,29.73,29.63,15,3,15,0.14
2013-6-12,82.4,71.1,60.2,65.4,61.0,57.8,94,73,45,29.79,29.71,12,1,12,0.00
2013-6-13,78.0,67.2,59.5,70.7,63.7,56.7,98,89,73,29.73,29.36,18,2,18,0.80
2013-6-14,79.3,66.9,58.2,61.3,57.2,54.6,91,73,48,29.89,29.55,12,2,12,0.00
2013-6-15,81.5,68.1,53.2,63.5,56.8,51.6,98,71,38,29.98,29.88,10,1,10,0.00
2013-6-16,80.2,69.1,58.7,68.1,61.0,54.8,92,76,61,29.94,29.73,12,2,12,0.00
2013-6-17,87.7,74.1,61.8,69.6,62.8,57.0,97,71,37,29.85,29.76,12,2,12,0.00
2013-6-18,79.6,69.3,59.5,68.1,62.1,55.3,97,79,63,29.85,29.73,9,1,9,0.00
2013-6-19,78.5,67.2,56.3,58.1,52.3,45.8,85,61,32,30.08,29.85,9,1,9,0.00
2013-6-20,81.8,67.8,49.6,65.2,57.4,48.0,97,72,46,30.18,30.08,12,1,12,0.00
2013-6-21,83.5,72.9,58.4,66.2,61.2,56.6,95,69,52,30.20,30.11,12,1,12,0.00
2013-6-22,86.8,74.3,57.2,70.8,63.4,54.9,94,70,53,30.15,30.00,8,1,8,0.00
2013-6-23,89.7,79.6,67.2,73.1,67.9,64.8,94,69,48,30.09,29.94,10,1,10,0.00
2013-6-24,92.0,79.1,65.7,74.3,68.8,63.3,94,72,49,30.02,29.88,8,1,8,0.00
2013-6-25,88.3,76.0,66.7,74.7,69.4,65.1,96,81,55,29.93,29.76,13,2,13,0.85
2013-6-26,80.2,74.7,66.6,71.0,67.9,64.6,95,80,70,29.81,29.76,5,0,5,0.01
2013-6-27,80.1,80.1,80.1,69.4,69.4,69.4,70,70,70,29.77,29.77,0,0,0,0.00